"Pseudo-MPEC" for C0HLPW1

Created 2019 Oct 10 13:07:04 UT using Find_Orb

Click here for an explanation of pseudo-MPECs

 
 Astrometry: 
     C0HLPW1  C2019 10 08.40749 03 40 29.55 -01 07 03.1    ~A8Ab 20.1 GVNEOCP703
     C0HLPW1  C2019 10 08.41279 03 40 29.13 -01 06 59.6    ~A8Ab 20.6 GVNEOCP703
     C0HLPW1  C2019 10 08.41810 03 40 28.72 -01 06 54.7    ~A8Ab 20.2 GVNEOCP703
     C0HLPW1  C2019 10 08.42340 03 40 28.36 -01 06 50.4    ~A8Ab 19.7 GVNEOCP703
     C0HLPW1  C2019 10 08.46958 03 40 25.16 -01 06 17.8    ~A8Bq 19.8 GVNEOCPI52
     C0HLPW1  C2019 10 08.47463 03 40 24.81 -01 06 14.1    ~A8Bq 19.5 GVNEOCPI52
     C0HLPW1  C2019 10 08.47972 03 40 24.45 -01 06 10.3    ~A8Bq 19.5 GVNEOCPI52
     C0HLPW1  C2019 10 08.48485 03 40 24.11 -01 06 06.8    ~A8Bq 19.7 GVNEOCPI52
     C0HLPW1  C2019 10 08(D@`DmM8\dRjJ@I8Z`$1oNZ#!aA(/:Zk^Q(GXt*BLNGGQ9[7=l-FF52
     C0HLPW1 KC2019 10 09.41010 03 39 21.61 -00 54 41.4    ~A9NM 19.8 RoNEOCP691
     C0HLPW1 KC2019 10 09.41581 03 39 21.18 -00 54 37.0    ~A9NM 19.9 RoNEOCP691
     C0HLPW1  C2019 10 09.48200 03 39 16.35 -00 53 47.8    ~A9C7 19.5 GVNEOCPI52
     C0HLPW1  C2019 10 09.48487 03 39 16.15 -00 53 45.7    ~A9C7 19.8 GVNEOCPI52
     C0HLPW1  C2019 10 09.48768 03 39 15.94 -00 53 43.7    ~A9C7 19.7 GVNEOCPI52
     C0HLPW1  C2019 10 09.49043 03 39 15.71 -00 53 41.6    ~A9C7 19.9 GVNEOCPI52
     C0HLPW1  C2019 10 10.43005 03 38 09.08 -00 41 51.1    ~AAAq 19.5 GVNEOCPI52
     C0HLPW1  C2019 10 10.43438 03 38 08.74 -00 41 47.8    ~AAAq 19.6 GVNEOCPI52
     C0HLPW1  C2019 10 10.43870 03 38 08.42 -00 41 44.4    ~AAAq 19.7 GVNEOCPI52
     C0HLPW1  C2019 10 10.44301 03 38 08.08 -00 41 41.3    ~AAAq 19.8 GVNEOCPI52

Station data:
(691) Steward Observatory, Kitt Peak - Spacewatch  (N31.962174 W111.600327)
   US/Arizona.  Observer J. V. Scotti. 0.9-m f/3 reflector + CCD.
(703) Catalina Sky Survey  (N32.417006 W110.732640)  US/Arizona.  Observers
   T. A. Pruyne, B. M. Africano, E. J. Christensen, G. A. Farneth, D. C.
   Fuls, A. R. Gibbs, A. D. Grauer, H. Groeller, J. A. Johnson, R. A.
   Kowalski, S. M. Larson, G. J. Leonard, D. Rankin, R. L. Seaman, F. C.
   Shelly. 0.68 m Schmidt + 10K CCD.
(F52) Pan-STARRS 2, Haleakala  (N20.707384 W156.255910)  US/Hawaii. 1.8-m
   Ritchey-Chrétien + CCD.
(I52) Steward Observatory, Mt. Lemmon Station  (N32.442547 W110.788920)
   US/Arizona.  Observers T. A. Pruyne, B. M. Africano, E. J. Christensen, G.
   A. Farneth, D. C. Fuls, A. R. Gibbs, A. D. Grauer, H. Groeller, J. A.
   Johnson, R. A. Kowalski, S. M. Larson, G. J. Leonard, D. Rankin, R. L.
   Seaman, F. C. Shelly. 1.0-m reflector + CCD.

Orbital elements:  C0HLPW1
   Perihelion 2019 Jun 10.553623 +/- 2.4 TT = 13:17:13 (JD 2458645.053623)
Epoch 2019 Oct 10.0 TT = JDT 2458766.5   Earth MOID: 0.7479   AutoNEOCP
M  45.17138456 +/- 1.7              (J2000 ecliptic)
n   0.37194509 +/- 0.00771          Peri.  277.29049 +/- 4.6
a   1.91491789 +/- 0.0265           Node    51.36273 +/- 0.50
e   0.1696748 +/- 0.0254            Incl.   26.34732 +/- 1.4
P   2.65/967.87d           H 18.3   G  0.15   U  9.5  
q 1.59000439 +/- 0.0561    Q 2.23983139 +/- 0.0544
From 19 observations 2019 Oct. 8-10; mean residual 0".30
Residuals in arcseconds: 
191008 703  .78+  .08-    191008 I52  .15+  .45-    191009 I52  .30-  .17-    
191008 703  .03+  .46-    191008 F52  .18+  .11-    191010 I52  .09+  .02+    
191008 703  .57-  .55+    191009 691  .02+  .04+    191010 I52  .05-  .02+    
191008 703  .42-  .97+    191009 691  .17-  .18+    191010 I52  .10+  .12+    
191008 I52  .07-  .25-    191009 I52  .08+  .06-    191010 I52  .06-  .07-    
191008 I52  .03-  .25-    191009 I52  .22+  .11-    
191008 I52  .11-  .18-    191009 I52  .14+  .22-    

Ephemerides (geocentric):
Date (UTC) HH   RA              Dec         delta   r     elong  mag " sig PA
---- -- -- --  -------------   -----------  ------ ------ -----  --- ---- ---
2019 10 10 13  03 38 01.024   -00 40 20.07  .82922 1.7201 140.3 20.1 .097  10
2019 10 10 14  03 37 57.978   -00 39 48.18  .82903 1.7201 140.3 20.1 .079   4
2019 10 10 15  03 37 54.925   -00 39 16.26  .82885 1.7202 140.4 20.1 .062 174
2019 10 10 16  03 37 51.868   -00 38 44.31  .82866 1.7203 140.4 20.1 .047 157
2019 10 10 17  03 37 48.804   -00 38 12.34  .82847 1.7204 140.5 20.1 .039 129
2019 10 10 18  03 37 45.735   -00 37 40.33  .82828 1.7205 140.5 20.1 .044  97
2019 10 10 19  03 37 42.661   -00 37 08.31  .82810 1.7205 140.6 20.1 .058  76
2019 10 10 20  03 37 39.580   -00 36 36.25  .82791 1.7206 140.6 20.1 .078  64
2019 10 10 21  03 37 36.494   -00 36 04.16  .82773 1.7207 140.7 20.1 .101  56
2019 10 10 22  03 37 33.403   -00 35 32.05  .82754 1.7208 140.7 20.1 .125  52
2019 10 10 23  03 37 30.306   -00 34 59.91  .82736 1.7208 140.8 20.1 .150  48
2019 10 11 00  03 37 27.203   -00 34 27.75  .82717 1.7209 140.8 20.1 .177  46
2019 10 11 01  03 37 24.095   -00 33 55.55  .82699 1.7210 140.9 20.1 .204  44
2019 10 11 02  03 37 20.981   -00 33 23.33  .82680 1.7211 140.9 20.1 .232  43
2019 10 11 03  03 37 17.861   -00 32 51.08  .82662 1.7212 141.0 20.1 .261  42
2019 10 11 04  03 37 14.736   -00 32 18.80  .82644 1.7212 141.0 20.1 .290  41
2019 10 11 05  03 37 11.605   -00 31 46.50  .82625 1.7213 141.1 20.1 .321  40
2019 10 11 06  03 37 08.469   -00 31 14.17  .82607 1.7214 141.1 20.1 .352  39
2019 10 11 07  03 37 05.327   -00 30 41.81  .82589 1.7215 141.2 20.1 .383  38
2019 10 11 08  03 37 02.180   -00 30 09.42  .82570 1.7216 141.2 20.1 .416  38
2019 10 11 09  03 36 59.026   -00 29 37.01  .82552 1.7216 141.3 20.1 .449  37
2019 10 11 10  03 36 55.868   -00 29 04.56  .82534 1.7217 141.3 20.1 .483  37
2019 10 11 11  03 36 52.703   -00 28 32.09  .82516 1.7218 141.4 20.1 .517  37
2019 10 11 12  03 36 49.534   -00 27 59.60  .82498 1.7219 141.4 20.1 .553  36
2019 10 11 13  03 36 46.358   -00 27 27.07  .82480 1.7219 141.5 20.1 .588  36
2019 10 11 14  03 36 43.177   -00 26 54.52  .82462 1.7220 141.5 20.1 .625  36
2019 10 11 15  03 36 39.991   -00 26 21.94  .82444 1.7221 141.6 20.1 .662  35
2019 10 11 16  03 36 36.799   -00 25 49.33  .82426 1.7222 141.6 20.1 .700  35
2019 10 11 17  03 36 33.601   -00 25 16.70  .82408 1.7223 141.7 20.1 .739  35
2019 10 11 18  03 36 30.398   -00 24 44.04  .82390 1.7223 141.7 20.1 .778  34
2019 10 11 19  03 36 27.189   -00 24 11.34  .82372 1.7224 141.8 20.1 .818  34
2019 10 11 20  03 36 23.975   -00 23 38.63  .82354 1.7225 141.8 20.1 .859  34
2019 10 11 21  03 36 20.755   -00 23 05.88  .82336 1.7226 141.9 20.1 .900  34
2019 10 11 22  03 36 17.529   -00 22 33.11  .82318 1.7227 141.9 20.1 .942  33
2019 10 11 23  03 36 14.298   -00 22 00.31  .82300 1.7227 142.0 20.1 .984  33
2019 10 12 00  03 36 11.062   -00 21 27.48  .82283 1.7228 142.0 20.1 1.03  33
2019 10 12 01  03 36 07.820   -00 20 54.62  .82265 1.7229 142.1 20.1 1.07  33
2019 10 12 02  03 36 04.572   -00 20 21.74  .82247 1.7230 142.1 20.1 1.12  33
2019 10 12 03  03 36 01.319   -00 19 48.83  .82230 1.7230 142.2 20.1 1.16  32
2019 10 12 04  03 35 58.061   -00 19 15.89  .82212 1.7231 142.2 20.1 1.21  32
2019 10 12 05  03 35 54.797   -00 18 42.92  .82194 1.7232 142.3 20.1 1.25  32
2019 10 12 06  03 35 51.527   -00 18 09.93  .82177 1.7233 142.3 20.1 1.30  32
2019 10 12 07  03 35 48.252   -00 17 36.90  .82159 1.7234 142.4 20.1 1.35  32
2019 10 12 08  03 35 44.971   -00 17 03.85  .82142 1.7234 142.4 20.1 1.40  32
2019 10 12 09  03 35 41.685   -00 16 30.77  .82124 1.7235 142.5 20.1 1.45  31
2019 10 12 10  03 35 38.393   -00 15 57.67  .82107 1.7236 142.5 20.1 1.50  31
2019 10 12 11  03 35 35.096   -00 15 24.54  .82090 1.7237 142.6 20.1 1.55  31
2019 10 12 12  03 35 31.793   -00 14 51.38  .82072 1.7238 142.6 20.1 1.60  31